Regional Weather Roundup
Issued by NWS

Home | Current Version | Previous Version | Graphics & Text | Print | Product List | Glossary On
Versions: 1 2 3 4 5 6 7 8 9 10 11 12 13 14 15 16 17 18 19 20 21 22 23 24 25 26 27 28 29 30 31 32 33 34 35 36 37 38 39 40 41 42 43 44 45 46 47 48 49 50
000
ASUS45 KBOI 290710
RWRID
WEATHER ROUNDUP FOR IDAHO
NATIONAL WEATHER SERVICE BOISE ID
100 AM MDT TUE JUL 29 2014

NOTE: "FAIR" INDICATES FEW OR NO CLOUDS BELOW 12000 FEET
WITH NO SIGNIFICANT WEATHER AND/OR OBSTRUCTIONS TO VISIBILITY

IDZ012-014-290800-
SOUTHWEST IDAHO


CITY           SKY/WX    TMP DP  RH WIND       PRES   REMARKS
BOISE          MOCLDY    83  48  29 SE6       30.04S
CALDWELL       MOCLDY    75  52  43 SW5       30.05R
MOUNTAIN HOME  MOCLDY    79  43  27 E15G21    30.06R
$$

IDZ016-017-290800-
SOUTHCENTRAL IDAHO


CITY           SKY/WX    TMP DP  RH WIND       PRES   REMARKS
BURLEY         CLOUDY    72  55  55 E9        30.17F
JEROME         MOCLDY    70  57  63 E14       30.17S
TWIN FALLS     MOCLDY    71  55  56 E6        30.17R
$$

IDZ019>023-290800-
SOUTHEAST IDAHO


CITY           SKY/WX    TMP DP  RH WIND       PRES   REMARKS
IDAHO FALLS    CLOUDY    64  57  78 NW3       30.27S
POCATELLO      CLOUDY    65  62  90 W6        30.25F
REXBURG        CLOUDY    66  52  60 S6        30.27S
$$

IDZ006-010-011-018-031-032-290800-
CENTRAL IDAHO MOUNTAINS


CITY           SKY/WX    TMP DP  RH WIND       PRES   REMARKS
MCCALL         CLOUDY    66  50  56 CALM      30.23S
HAILEY         MOCLDY    68  48  49 S5        30.31S
STANLEY          N/A     50  46  86 S3        30.39S
SALMON         PTCLDY    64  48  55 CALM      30.19S
CHALLIS        PTCLDY    65  44  46 NW5       30.26S
$$

IDZ002-004-006-007-026-290800-
NORTHERN IDAHO


CITY           SKY/WX    TMP DP  RH WIND       PRES   REMARKS
LEWISTON       PTCLDY    82  39  21 W5        29.99R
LOWELL           N/A     69  59  70 N3        30.04R
COEUR D`ALENE  CLEAR     66  55  68 S3        30.06S
MULLAN PASS    CLEAR     70  34  26 CALM      30.33S
$$


USA.gov is the U.S. government's official web portal to all federal, state and local government web resources and services.